This is the latest recevied weather packets stored in our database for station/object W1GK. If no packets are shown the sender has not sent any weather packets the latest 10 day(s).
| Time | Temp. | Humidity | Pressure | Rain* | Wind** | Luminosity | Snow |
|---|---|---|---|---|---|---|---|
| 1777862401 | 27.22° C | 12% | 1005.6 hPa | 0 mm | - | 0 W/m² | - |
| 1777861802 | 27.78° C | 12% | 1005.5 hPa | 0 mm | - | 0 W/m² | - |
| 1777861200 | 27.78° C | 12% | 1005.5 hPa | 0 mm | - | 7 W/m² | - |
| 1777860600 | 27.78° C | 12% | 1005.5 hPa | 0 mm | - | 12 W/m² | - |
| 1777860000 | 28.33° C | 13% | 1005.4 hPa | 0 mm | - | 18 W/m² | - |
| 1777859399 | 28.33° C | 12% | 1005.4 hPa | 0 mm | - | 19 W/m² | - |
| 1777858799 | 28.89° C | 11% | 1005.4 hPa | 0 mm | - | 26 W/m² | - |
| 1777858199 | 28.89° C | 12% | 1005.4 hPa | 0 mm | - | 47 W/m² | - |
| 1777857599 | 29.44° C | 11% | 1005.4 hPa | 0 mm | - | 185 W/m² | - |
| 1777856999 | 29.44° C | 12% | 1005.5 hPa | 0 mm | - | 70 W/m² | - |
| 1777856399 | 29.44° C | 11% | 1005.5 hPa | 0 mm | - | 67 W/m² | - |
| 1777855800 | 30.56° C | 11% | 1005.6 hPa | 0 mm | - | 151 W/m² | - |
| 1777855200 | 30.56° C | 10% | 1005.5 hPa | 0 mm | - | 329 W/m² | - |
| 1777854599 | 31.11° C | 10% | 1005.6 hPa | 0 mm | - | 360 W/m² | - |
| 1777853999 | 31.67° C | 9% | 1005.6 hPa | 0 mm | - | 427 W/m² | - |
| 1777853400 | 31.67° C | 10% | 1005.6 hPa | 0 mm | - | 483 W/m² | - |
| 1777852800 | 31.67° C | 10% | 1005.8 hPa | 0 mm | - | 538 W/m² | - |
| 1777852201 | 31.11° C | 11% | 1005.8 hPa | 0 mm | - | 573 W/m² | - |
| 1777851601 | 30.56° C | 11% | 1005.9 hPa | 0 mm | - | 598 W/m² | - |
| 1777850999 | 30.56° C | 11% | 1005.8 hPa | 0 mm | - | 130 W/m² | - |
| 1777850403 | 30° C | 12% | 1005.8 hPa | 0 mm | - | 114 W/m² | - |
| 1777849802 | 30° C | 12% | 1005.9 hPa | 0 mm | - | 134 W/m² | - |
| 1777849202 | 30° C | 12% | 1006.2 hPa | 0 mm | - | 141 W/m² | - |
| 1777848599 | 30.56° C | 12% | 1006.4 hPa | 0 mm | - | 162 W/m² | - |
| 1777848000 | 31.11° C | 12% | 1006.4 hPa | 0 mm | - | 188 W/m² | - |
* Rain latest hour (hover to see other rain measurements)
** Current wind speed in m/s (hover to see current wind gust speed)